This demonstration page uses our WeatherBlox Daily Observations layout. Learn more.

39.08367, -84.50855

Hourly Observations for January 27, 2020

Temp ( °F °C ) Dew Point ( °F °C ) Humidity (%) Winds ( mph kmh ) Pressure ( in mb ) Visibility ( mi km ) Precip ( " mm )
12:53 am 00:53 Clear with Mist and Fog 30 -1.1 30 -1.1 100 100 SW 3 6 29.93 1013 6 9.65604 0 0
1:11 am 01:11 Mostly Clear with Mist and Fog 28 -2.2 28 -2.2 100 100 Calm 29.94 1014 1.25 2.011675 0 0
1:13 am 01:13 Mostly Cloudy with Mist and Fog 28 -2.2 27 -2.8 96 96 Calm 29.94 1014 0.75 1.207005 0 0
1:24 am 01:24 Clear with Mist and Fog 28 -2.2 27 -2.8 96 96 SSW 3 6 29.94 1014 1 1.60934 0 0
1:30 am 01:30 Mostly Cloudy with Mist and Fog 25 -3.9 25 -3.9 100 100 Calm 29.95 1014 0.75 1.207005 0 0
1:41 am 01:41 Mostly Cloudy with Freezing Fog 28 -2.2 27 -2.8 96 96 Calm 29.94 1014 0.25 0.402335 0 0
1:53 am 01:53 Mostly Cloudy with Freezing Fog 27 -2.8 26 -3.3 96 96 Calm 29.92 1013 0.25 0.402335 0 0
2:18 am 02:18 Mostly Cloudy with Freezing Fog 27 -2.8 27 -2.8 100 100 Calm 29.93 1014 0.25 0.402335 0 0
2:26 am 02:26 Mostly Cloudy with Mist and Fog 27 -2.8 27 -2.8 100 100 Calm 29.93 1014 0.75 1.207005 0 0
2:29 am 02:29 Mostly Clear with Mist and Fog 27 -2.8 27 -2.8 100 100 Calm 29.93 1014 1.25 2.011675 0 0
2:41 am 02:41 Mostly Cloudy with Mist and Fog 26 -3.3 25 -3.9 96 96 Calm 29.94 1014 1 1.60934 0 0
2:53 am 02:53 Mostly Clear with Mist and Fog 27 -2.8 25 -3.9 92 92 Calm 29.91 1013 1.25 2.011675 0 0
3:02 am 03:02 Mostly Clear with Mist and Fog 27 -2.8 27 -2.8 100 100 Calm 29.93 1014 3 4.82802 0 0
3:11 am 03:11 Clear with Mist and Fog 27 -2.8 26 -3.3 96 96 Calm 29.93 1014 1.5 2.41401 0 0
3:20 am 03:20 Mostly Cloudy with Freezing Fog 26 -3.3 24 -4.4 92 92 Calm 29.94 1014 0.25 0.402335 0 0
3:35 am 03:35 Mostly Cloudy with Mist and Fog 24 -4.4 23 -5 96 96 Calm 29.94 1014 0.75 1.207005 0 0
3:44 am 03:44 Cloudy with Freezing Fog 25 -3.9 24 -4.4 96 96 Calm 29.94 1014 0.25 0.402335 0 0
3:53 am 03:53 Cloudy with Freezing Fog 25 -3.9 23 -5 92 92 Calm 29.91 1013 0.25 0.402335 0 0
4:01 am 04:01 Mostly Cloudy with Freezing Fog 25 -3.9 24 -4.4 96 96 Calm 29.94 1014 0.25 0.402335 0 0
4:53 am 04:53 Mostly Cloudy with Freezing Fog 27 -2.8 26 -3.3 96 96 Calm 29.91 1013 0.25 0.402335 0 0
5:53 am 05:53 Mostly Cloudy with Freezing Fog 26 -3.3 26 -3.3 100 100 Calm 29.91 1013 0.25 0.402335 0 0
6:53 am 06:53 Cloudy with Freezing Fog 27 -2.8 26 -3.3 96 96 Calm 29.91 1013 0.25 0.402335 0 0
7:03 am 07:03 Cloudy with Freezing Fog 28 -2.2 27 -2.8 96 96 Calm 29.93 1014 0.5 0.80467 0 0
7:06 am 07:06 Cloudy with Freezing Fog 28 -2.2 27 -2.8 96 96 Calm 29.93 1014 0.25 0.402335 0 0
7:20 am 07:20 Cloudy with Mist and Fog 28 -2.2 27 -2.8 96 96 Calm 29.94 1014 0.75 1.207005 0 0
7:26 am 07:26 Cloudy with Mist and Fog 28 -2.2 27 -2.8 96 96 Calm 29.94 1014 0.75 1.207005 0 0
7:53 am 07:53 Cloudy with Mist and Fog 28 -2.2 27 -2.8 96 96 Calm 29.93 1013 2 3.21868 0 0
8:53 am 08:53 Cloudy with Mist and Fog 30 -1.1 28 -2.2 92 92 SSW 3 6 29.95 1014 5 8.0467 0 0
9:53 am 09:53 Cloudy with Mist and Fog 32 0 30 -1.1 92 92 NW 6 9 29.96 1015 5 8.0467 0 0
10:53 am 10:53 Cloudy 33 0.6 29 -1.7 85 85 NNW 7 11 29.97 1015 9 14.48406 0 0
11:53 am 11:53 Cloudy 37 2.8 29 -1.7 73 73 VRB 3 6 29.97 1015 10 16.0934 0 0
12:06 pm 12:06 Cloudy 38 3.3 29 -1.7 70 70 VRB 6 9 29.97 1015 10 16.0934 0 0
12:53 pm 12:53 Cloudy 39 3.9 30 -1.1 70 70 VRB 6 9 29.95 1014 10 16.0934 0 0
1:53 pm 13:53 Cloudy 39 3.9 30 -1.1 70 70 NNW 8 13 29.94 1014 10 16.0934 0 0
2:53 pm 14:53 Cloudy 38 3.3 30 -1.1 73 73 N 8 13 29.95 1014 10 16.0934 0 0
3:53 pm 15:53 Cloudy 37 2.8 29 -1.7 73 73 NNW 9 15 29.97 1015 10 16.0934 0 0
4:53 pm 16:53 Cloudy 36 2.2 29 -1.7 76 76 NNW 9 15 29.99 1016 10 16.0934 0 0
5:53 pm 17:53 Cloudy 36 2.2 29 -1.7 76 76 NNW 8 13 30.01 1016 9 14.48406 0 0
6:53 pm 18:53 Cloudy 35 1.7 29 -1.7 78 78 NW 7 11 30.03 1017 9 14.48406 0 0
7:53 pm 19:53 Cloudy 35 1.7 29 -1.7 78 78 NW 5 7 30.04 1017 8 12.87472 0 0
8:53 pm 20:53 Cloudy 34 1.1 29 -1.7 82 82 WNW 5 7 30.05 1018 7 11.26538 0 0
9:53 pm 21:53 Cloudy 34 1.1 29 -1.7 82 82 WNW 5 7 30.06 1018 7 11.26538 0 0
10:53 pm 22:53 Cloudy 35 1.7 29 -1.7 78 78 Calm 30.07 1018 7 11.26538 0 0
11:10 pm 23:10 Cloudy 34 1.1 29 -1.7 82 82 NW 5 7 30.09 1019 7 11.26538 0 0
11:53 pm 23:53 Cloudy 34 1.1 29 -1.7 82 82 Calm 30.07 1018 8 12.87472 0 0

Powered by AerisWeather